Location: Unspecified
(0.0000°N, 0.0000°E)
Time: 00:12:35
(UTC+00:00)

Galileo 6 - Pass Details

Date: 30 November 2022
Orbit: 17095 x 26103 km, 50.1° (Epoch: 05 February)

Event Time Altitude Azimuth Distance (km) Brightness Sun altitude
Rises 00:41:03 0° 311° (NW) 25,426 ? -64.9°
Reaches altitude 10° 01:27:23 10° 327° (NNW) 22,772 ? -57.6°
Maximum altitude 03:56:27 71° 74° (ENE) 18,285 ? -25.9°
Drops below altitude 10° 07:13:54 10° 146° (SE) 29,160 ? 19.8°
Sets 08:24:51 0° 136° (SE) 31,571 ? 35.8°
